Regional Weather Roundup
Issued by NWS

Home | Current Version | Previous Version | Text Only | Print | Product List | Glossary On
Versions: 1 2 3 4 5 6 7 8 9 10 11 12 13 14 15 16 17 18 19 20 21 22 23 24 25 26 27 28 29 30 31 32 33 34 35 36 37 38 39 40 41 42 43 44 45 46 47 48 49 50
000
ASUS43 KTOP 280608
RWRKS

WEATHER ROUNDUP FOR KANSAS
NATIONAL WEATHER SERVICE GOODLAND KS
1200 AM CST FRI NOV 28 2014

NOTE:  "FAIR" INDICATES FEW OR NO CLOUDS BELOW 12,000 FEET WITH NO
SIGNIFICANT WEATHER AND/OR OBSTRUCTIONS TO VISIBILITY.

KSZ001>006-013>018-027>032-041>047-280700-
NORTHWEST KANSAS

CITY           SKY/WX    TMP DP  RH WIND       PRES   REMARKS
GOODLAND       CLEAR     41  26  55 W8        30.04S
6HR MIN TEMP:  39; 6HR MAX TEMP:  53;

HAYS           CLEAR     36  19  51 S7        30.03F
HILL CITY      CLEAR     38  26  62 W6        30.00F
6HR MIN TEMP:  36; 6HR MAX TEMP:  45;

RUSSELL        CLEAR     37  24  59 S16       30.01F WCI  28
6HR MIN TEMP:  37; 6HR MAX TEMP:  41;

$$

KSZ061>065-074>080-084>089-280700-
SOUTHWEST KANSAS

CITY           SKY/WX    TMP DP  RH WIND       PRES   REMARKS
DODGE CITY     CLEAR     42  25  50 SW16      30.06F
6HR MIN TEMP:  40; 6HR MAX TEMP:  47;

ELKHART          N/A     45  27  49 SW9         N/A
GARDEN CITY    CLEAR     36  28  73 SW8       30.05F
6HR MIN TEMP:  36; 6HR MAX TEMP:  47;

GREAT BEND     CLEAR     37  21  52 S14       30.06F WCI  29
LIBERAL        PTCLDY    39  25  56 S9        30.09F
PRATT          CLEAR     34  27  75 S14       30.09F WCI  24
$$

KSZ066>073-081>083-090>101-280700-
SOUTHEAST KANSAS

CITY           SKY/WX    TMP DP  RH WIND       PRES   REMARKS
CHANUTE        CLEAR     30  24  78 SE8       30.23F
6HR MIN TEMP:  30; 6HR MAX TEMP:  35;

COFFEYVILLE    CLEAR     33  25  72 S8        30.25F
6HR MIN TEMP:  33; 6HR MAX TEMP:  38;

HUTCHINSON     CLEAR     40  24  53 S14       30.11F WCI  32
6HR MIN TEMP:  38; 6HR MAX TEMP:  41;

MEDICINE LODGE   N/A     36  25  64 S7        30.13F
NEWTON         CLEAR     39  19  45 S18G25    30.13F WCI  30
PARSONS        CLEAR     35  25  66 SE5       30.26F
6HR MIN TEMP:  35; 6HR MAX TEMP:  38;

WICHITA INTL   CLEAR     37  23  56 S14       30.14F WCI  28
6HR MIN TEMP:  37; 6HR MAX TEMP:  41;

WICHITA JABRA  CLEAR     39  23  52 S15       30.14F WCI  31
6HR MIN TEMP:  36; 6HR MAX TEMP:  39;

WICHITA MCCONL CLEAR     38  22  52 S13       30.15F WCI  30
WINFIELD       CLEAR     36  24  62 S9        30.19F
6HR MIN TEMP:  35; 6HR MAX TEMP:  40;

$$

KSZ007>012-019>026-033>040-048>060-102>105-280700-
NORTHEAST KANSAS

CITY           SKY/WX    TMP DP  RH WIND       PRES   REMARKS
CONCORDIA      CLEAR     34  19  54 SE12      30.05F WCI  25
6HR MIN TEMP:  34; 6HR MAX TEMP:  37;

EMPORIA        CLEAR     31  22  69 SE12      30.18F WCI  22
6HR MIN TEMP:  29; 6HR MAX TEMP:  34;

LAWRENCE       CLEAR     27  22  81 SE8       30.23F
6HR MIN TEMP:  25; 6HR MAX TEMP:  32;

MANHATTAN      CLEAR     34  22  61 S8        30.14F
6HR MIN TEMP:  29; 6HR MAX TEMP:  37;

MARYSVILLE     CLEAR     32  21  64 S12G17    30.09F WCI  23
OLATHE IND     CLEAR     30  22  72 SE10      30.23F WCI  21
6HR MIN TEMP:  29; 6HR MAX TEMP:  35;

OLATHE EXE     CLEAR     30  22  72 SE10      30.23F WCI  21
6HR MIN TEMP:  29; 6HR MAX TEMP:  35;

SALINA         CLEAR     37  22  54 S12       30.07F WCI  29
6HR MIN TEMP:  35; 6HR MAX TEMP:  39;

TOPEKA BILLARD CLEAR     30  21  69 E6        30.21F
6HR MIN TEMP:  30; 6HR MAX TEMP:  35;

TOPEKA FORBES  CLEAR     34  23  64 S12       30.18F WCI  25
6HR MIN TEMP:  31; 6HR MAX TEMP:  35;

$$


USA.gov is the U.S. government's official web portal to all federal, state and local government web resources and services.